Location: Pine Mountain Observatory
(43.7910°N, 120.9377°W)
Time: 10:30:49
(UTC-07:00)

Daily predictions for brighter satellites

Satellite Brightness Start Highest point End
(mag) Time Altitude Azimuth Time Altitude Azimuth Time Altitude Azimuth
SL-8 Rocket 4.1 18:27:10 10° S 18:33:21 88° W 18:39:39 10° N
YAOGAN 1 2.6 18:33:22 10° SSE 18:37:36 57° ENE 18:41:51 10° N
ALOS 3.1 18:38:26 10° SE 18:42:24 28° ENE 18:46:23 10° N
Abrixas 3.8 18:41:39 10° S 18:43:01 15° SE 18:44:24 10° ESE
Cosmos 2360 Rocket 2.3 18:38:26 10° NNW 18:44:07 89° WSW 18:49:48 10° SSE
Aureole 2 Rocket 4.1 18:42:21 10° N 18:45:24 21° ENE 18:48:31 10° ESE
MTI 3.8 18:43:10 10° NNE 18:46:21 58° E 18:49:30 10° S
BREEZE-M DEB (TANK) 2.8 18:45:23 10° WNW 18:47:35 30° SW 18:49:24 10° SSE
Cosmos 2322 Rocket 4.3 18:48:32 10° NW 18:53:25 31° WSW 18:58:17 10° SSW
MOS 1 4.3 18:47:54 10° SSE 18:53:31 66° ENE 18:59:10 10° N
COSMOS 2428 2.9 18:49:23 10° NNW 18:54:58 52° ENE 19:00:30 10° SE
SPOT 3 Rocket 3.7 18:50:02 10° SSE 18:55:05 55° ENE 19:00:11 10° N
MONITOR-E 4.3 18:52:19 10° SSE 18:55:17 48° ENE 18:58:17 10° N
Cosmos 1452 Rocket 3.6 18:51:09 10° NNW 18:56:26 88° WSW 19:01:42 10° SSE
CZ-4 R/B 2.1 18:52:48 10° S 18:56:58 61° W 19:01:05 10° NNW
Cosmos 1821 Rocket 4.5 18:51:57 10° SSE 18:57:28 36° E 19:03:06 10° NNE
Cosmos 2333 Rocket 3.0 18:52:38 10° N 18:57:45 32° NE 19:02:50 10° ESE
Cosmos 1833 4.4 18:54:30 10° SSW 19:00:11 77° WNW 19:05:51 10° NNE
Cosmos 2219 3.7 18:56:03 10° S 19:01:19 39° ESE 19:06:37 10° NE
Cosmos 2221 2.7 18:58:18 10° SSE 19:02:27 47° E 19:06:39 10° NNE
SKYMED 2 3.6 18:58:17 10° NNE 19:02:36 60° E 19:06:52 10° S
GP-B 3.2 18:58:12 10° N 19:02:39 82° W 19:07:05 10° S
FENGYUN 3A 3.9 18:57:56 10° SE 19:03:04 46° ENE 19:08:13 10° N
Cosmos 1743 Rocket 4.4 18:59:27 10° NNW 19:03:45 56° W 19:08:04 10° S
Aureole 2 4.4 19:02:40 10° NNW 19:05:47 78° WSW 19:09:18 10° SSE
Abrixas rocket 3.3 19:02:58 10° WNW 19:06:01 34° N 19:08:13 16° ENE
Cosmos 2084 4.2 19:02:44 10° NNW 19:06:03 28° NE 19:08:15 17° E
Iridium 4 Rocket 4.0 19:00:44 10° SSE 19:06:06 47° E 19:11:44 10° NNE
ERS-2 3.3 19:03:11 10° S 19:06:46 48° W 19:10:22 10° NNW
Cosmos 921 Rocket 3.2 19:02:20 10° NNW 19:06:48 81° WSW 19:11:09 10° SSE
EO 1 Del DPAF 3.2 19:04:58 10° NNE 19:08:51 88° ESE 19:12:41 10° SSW
Cosmos 2297 Rocket 3.8 19:07:10 10° SE 19:08:58 13° ESE 19:08:58 13° ESE
Cosmos 2098 Rocket 3.8 19:05:28 10° SSE 19:09:55 44° E 19:15:31 10° NNE
Cosmos 1727 Rocket 4.4 19:04:08 10° NNW 19:10:29 73° W 19:16:46 10° S
Cosmos 44 3.0 19:06:45 10° SSW 19:11:02 59° ESE 19:15:18 10° NE
Cosmos 1842 Rocket 4.3 19:09:42 10° SSW 19:14:06 56° W 19:18:29 10° N
Cosmos 1726 2.6 19:12:26 10° SSE 19:15:52 37° E 19:19:18 10° NNE
Cosmos 1315 Rocket 3.2 19:15:47 10° NNW 19:19:51 68° W 19:23:56 10° S
SL-8 R/B 4.0 19:16:54 10° W 19:21:42 64° NNW 19:25:05 19° ENE
Cosmos 2322 4.5 19:16:28 10° NNW 19:22:05 56° WSW 19:27:37 10° S
Cosmos 2123 Rocket 4.3 19:20:18 10° N 19:26:14 43° ENE 19:32:09 10° SE
FengYun 1-2 T 4.5 19:21:36 10° SE 19:26:47 44° ENE 19:31:58 10° N
FREGAT/IRIS 3.3 19:28:40 33° ENE 19:28:40 33° ENE 19:31:14 10° N
Cosmos 2219 Rocket 2.2 19:25:48 10° NNW 19:31:23 63° ENE 19:36:56 10° SE
Cosmos 1605 Rocket 4.5 19:26:32 10° SSE 19:31:55 34° E 19:37:18 10° NNE
BREEZE M DEB (TANK) 2.3 19:28:16 10° WNW 19:32:51 45° N 19:33:33 35° NE
Cosmos 1048 Rocket 3.9 19:28:32 10° SSW 19:33:40 87° ESE 19:38:49 10° NNE
Cosmos 158 Rocket 4.1 19:28:50 10° SSW 19:33:54 78° WNW 19:39:09 10° NNE
APEX 3.1 19:33:33 10° SW 19:36:35 56° WNW 19:38:31 17° NNE
NOAA 12 4.2 19:33:02 10° SSE 19:38:21 81° WSW 19:43:42 10° NNW
Envisat 4.2 19:42:01 23° NE 19:42:01 23° NE 19:45:29 10° NNE
SJ-6B 3.1 19:42:09 39° ENE 19:42:13 39° ENE 19:45:43 10° N
Lacrosse 5 rocket 3.7 19:41:15 10° NNW 19:43:30 14° N 19:45:15 11° NNE
BREEZE-M R/B 3.8 19:41:26 10° SSW 19:42:53 22° SSE 19:42:53 22° SSE
Cosmos 44 Rocket 3.4 19:39:21 10° SW 19:44:02 72° NW 19:48:16 13° NNE
Resurs 01 Rocket 3.1 19:48:55 21° NE 19:48:55 21° NE 19:51:00 10° NNE
Sich 1 2.9 19:44:47 10° N 19:49:10 72° E 19:53:33 10° SSE
COSMO-SKYMED 1 3.9 19:46:30 10° N 19:50:35 42° WNW 19:54:40 10° SW
NOSS 0 Rocket 3.8 19:45:10 10° NNW 19:51:20 70° ENE 19:55:44 20° SE
Thor Agena Rocket 3.3 19:49:42 10° NNE 19:54:49 75° ESE 19:59:51 10° S
CZ-4C R/B 2.2 19:49:58 10° SW 19:55:12 83° NW 20:00:19 15° NE
H-2A R/B 2.6 19:54:19 23° SSE 19:56:41 80° ENE 20:00:37 10° N
MOS 1-B Rocket 4.1 20:00:08 34° ESE 20:02:20 51° ENE 20:08:21 10° N
Cosmos 1805 Rocket 4.4 19:58:56 10° NNW 20:03:12 52° W 20:07:28 10° S
In-Cosmos 22 Rocket 4.1 19:59:55 10° N 20:05:42 78° E 20:11:31 10° SSE
Cosmos 2237 Rocket 2.1 20:01:39 10° NNW 20:07:21 66° ENE 20:09:09 43° SE
Cosmos 1331 Rocket 3.8 20:02:12 10° NNW 20:07:27 77° ENE 20:09:25 39° SSE
Cosmos 1666 Rocket 3.8 20:08:12 10° NNW 20:12:31 65° W 20:16:46 10° S
Gbstr 26 Del rocket 4.2 20:07:57 10° WNW 20:13:00 56° SW 20:15:52 30° SSE
Cosmos 1300 3.1 20:10:18 10° SSW 20:14:04 61° W 20:17:53 10° N
Cosmos 2227 Rocket 2.2 20:10:03 10° S 20:15:33 57° ESE 20:16:00 56° E
Cosmos 1633 Rocket 3.3 20:13:35 10° NNW 20:18:00 70° W 20:20:37 24° S
SL-16 R/B 3.0 20:14:07 10° N 20:18:33 35° NE 20:18:33 35° NE
USA 267 3.7 20:19:47 39° SE 20:19:47 39° SE 20:25:28 10° SSW
ALOS 4.0 20:15:34 10° SSW 20:19:44 32° W 20:23:57 10° NNW
Aureole 2 Rocket 4.4 20:16:55 10° NW 20:20:31 34° WSW 20:23:45 12° SSW
Cosmos 1980 3.7 20:25:52 10° NNW 20:31:31 76° WSW 20:33:05 49° S
Meteor 2-3 Rocket 3.6 20:26:54 10° N 20:32:29 71° ENE 20:32:29 71° ENE
ATLAS 5 CENTAUR R/B 4.3 20:32:57 10° N 20:35:37 14° NNE 20:35:37 14° NNE
Cosmos 1302 Rocket 4.1 20:30:50 10° NNW 20:35:22 65° N 20:35:22 65° N
Cosmos 2333 Rocket 3.2 20:36:43 10° NW 20:42:09 44° WSW 20:45:47 20° S
Spot 2 Rocket 4.3 20:46:51 41° N 20:46:51 41° N 20:50:09 10° NNW
Cosmos 494 Rocket 4.5 20:45:12 10° SW 20:50:12 56° WNW 20:51:05 49° NNW
Cosmos 2297 Rocket 2.9 20:47:16 10° SSW 20:50:54 42° SSW 20:50:54 42° SSW
USA 234 3.9 20:55:30 42° NNE 20:55:31 42° NNE 21:01:36 10° NW
Resurs 01 Rocket 4.2 21:26:30 17° NW 21:26:30 17° NW 21:27:45 10° NNW
Lacrosse 5 rocket 4.5 21:20:53 10° NNW 21:20:56 10° NNW 21:20:56 10° NNW
CZ-4C R/B 4.3 21:40:27 10° WNW 21:44:46 22° NNW 21:45:32 21° NNW
Cosmos 2237 Rocket 4.4 21:46:57 10° WNW 21:50:49 19° W 21:51:02 19° WSW
Cosmos 2227 Rocket 4.4 21:55:23 10° WSW 21:57:57 20° W 21:57:57 20° W
SL-16 R/B 4.4 21:58:19 10° NW 22:00:27 21° NW 22:00:27 21° NW
